VLG8QU LEBL-LECO

Flight info

Callsign VLG8QU
Flight time 1h 30m
Altitude 31000
Route LOBAR N725 DIRMU/N0427F330 N725 SUSOS/N0350F230 N725 LOMDA
Aircraft A20N/M-SDFGHILORVWXY/LB1

Departure

Time 2026-05-05 10:44
Airport Josep Tarradellas Barcelona-El Prat Airport (LEBL)

Arrival

Time 2026-05-05 12:15
Airport A Coruña Airport (LECO)
Time Latitude Longitude Altitude Speed Heading
2026-05-05 10:18 41.29191 2.08067 13 ft 0 kts 155°
2026-05-05 10:34 41.29191 2.08066 14 ft 0 kts 155°
2026-05-05 10:34 41.29204 2.08058 14 ft 2 kts 154°
2026-05-05 10:34 41.29218 2.08050 14 ft 2 kts 155°
2026-05-05 10:35 41.29231 2.08041 14 ft 2 kts 155°
2026-05-05 10:35 41.29244 2.08031 15 ft 2 kts 129°
2026-05-05 10:35 41.29252 2.08014 15 ft 2 kts 109°
2026-05-05 10:35 41.29254 2.07994 15 ft 2 kts 86°
2026-05-05 10:36 41.29251 2.07974 15 ft 2 kts 64°
2026-05-05 10:36 41.29247 2.07965 15 ft 0 kts 61°
2026-05-05 10:38 41.29248 2.07966 15 ft 0 kts 61°
2026-05-05 10:38 41.29255 2.07987 15 ft 4 kts 64°
2026-05-05 10:38 41.29274 2.08040 15 ft 8 kts 65°
2026-05-05 10:38 41.29302 2.08124 16 ft 11 kts 65°
2026-05-05 10:39 41.29336 2.08221 16 ft 11 kts 66°
2026-05-05 10:39 41.29371 2.08324 16 ft 12 kts 69°
2026-05-05 10:39 41.29324 2.08407 15 ft 13 kts 157°
2026-05-05 10:39 41.29233 2.08461 14 ft 15 kts 156°
2026-05-05 10:40 41.29132 2.08523 14 ft 15 kts 155°
2026-05-05 10:40 41.29036 2.08581 16 ft 14 kts 155°
2026-05-05 10:40 41.28942 2.08638 16 ft 15 kts 155°
2026-05-05 10:40 41.28865 2.08721 17 ft 14 kts 88°
2026-05-05 10:41 41.28901 2.08843 18 ft 14 kts 65°
2026-05-05 10:41 41.28949 2.08982 20 ft 18 kts 65°
2026-05-05 10:41 41.29009 2.09155 19 ft 22 kts 66°
2026-05-05 10:41 41.29078 2.09359 21 ft 25 kts 65°
2026-05-05 10:42 41.29221 2.09770 22 ft 23 kts 67°
2026-05-05 10:42 41.29279 2.09929 22 ft 14 kts 48°
2026-05-05 10:42 41.29327 2.10046 23 ft 15 kts 65°
2026-05-05 10:43 41.29370 2.10178 23 ft 15 kts 76°
2026-05-05 10:43 41.29318 2.10282 25 ft 13 kts 157°
2026-05-05 10:43 41.29231 2.10317 26 ft 12 kts 188°
2026-05-05 10:43 41.29185 2.10222 26 ft 15 kts 246°
2026-05-05 10:44 41.29038 2.09793 26 ft 92 kts 245°
2026-05-05 10:44 41.28668 2.08710 38 ft 159 kts 247°
2026-05-05 10:44 41.28180 2.07331 685 ft 166 kts 238°
2026-05-05 10:44 41.27294 2.06330 1256 ft 185 kts 200°
2026-05-05 10:45 41.25954 2.06126 1790 ft 204 kts 181°
2026-05-05 10:45 41.24530 2.05841 2510 ft 216 kts 193°
2026-05-05 10:45 41.23049 2.05332 3364 ft 224 kts 195°
2026-05-05 10:45 41.21580 2.04821 4429 ft 220 kts 195°
2026-05-05 10:46 41.20094 2.04333 5391 ft 221 kts 196°
2026-05-05 10:46 41.18724 2.03533 6233 ft 221 kts 219°
2026-05-05 10:46 41.17798 2.01898 6886 ft 233 kts 250°
2026-05-05 10:46 41.17714 1.99696 7483 ft 253 kts 283°
2026-05-05 10:47 41.18367 1.97470 8107 ft 269 kts 289°
2026-05-05 10:47 41.19054 1.95135 8873 ft 276 kts 287°
2026-05-05 10:47 41.19730 1.92766 9776 ft 278 kts 286°
2026-05-05 10:47 41.20405 1.90379 10589 ft 283 kts 286°
2026-05-05 10:48 41.21118 1.87841 11056 ft 300 kts 286°
2026-05-05 10:48 41.21857 1.85215 11594 ft 312 kts 286°
2026-05-05 10:48 41.22623 1.82507 12370 ft 317 kts 287°
2026-05-05 10:48 41.23403 1.79764 13165 ft 320 kts 286°
2026-05-05 10:49 41.24185 1.77015 13941 ft 323 kts 286°
2026-05-05 10:49 41.24971 1.74242 14721 ft 325 kts 286°
2026-05-05 10:49 41.25774 1.71406 15504 ft 327 kts 285°
2026-05-05 10:49 41.26566 1.68607 16256 ft 330 kts 285°
2026-05-05 10:50 41.27372 1.65756 17023 ft 330 kts 285°
2026-05-05 10:50 41.28181 1.62888 17749 ft 332 kts 285°
2026-05-05 10:50 41.28990 1.60014 18480 ft 334 kts 284°
2026-05-05 10:50 41.29805 1.57119 19187 ft 335 kts 284°
2026-05-05 10:51 41.30621 1.54216 19854 ft 337 kts 284°
2026-05-05 10:51 41.31441 1.51291 20524 ft 339 kts 284°
2026-05-05 10:51 41.32258 1.48380 21186 ft 341 kts 283°
2026-05-05 10:51 41.33086 1.45418 21859 ft 342 kts 283°
2026-05-05 10:52 41.33919 1.42439 22479 ft 345 kts 283°
2026-05-05 10:52 41.34748 1.39465 23091 ft 347 kts 283°
2026-05-05 10:52 41.35593 1.36437 23694 ft 349 kts 283°
2026-05-05 10:52 41.36434 1.33417 24257 ft 352 kts 282°
2026-05-05 10:53 41.37286 1.30347 24865 ft 354 kts 282°
2026-05-05 10:53 41.38133 1.27295 25412 ft 356 kts 282°
2026-05-05 10:53 41.38988 1.24205 25910 ft 359 kts 282°
2026-05-05 10:53 41.39857 1.21070 26423 ft 362 kts 282°
2026-05-05 10:54 41.40736 1.17899 26949 ft 364 kts 282°
2026-05-05 10:54 41.41600 1.14777 27433 ft 366 kts 282°
2026-05-05 10:54 41.42479 1.11598 27868 ft 369 kts 281°
2026-05-05 10:54 41.43372 1.08359 28293 ft 371 kts 281°
2026-05-05 10:55 41.44259 1.05141 28715 ft 373 kts 281°
2026-05-05 10:55 41.45143 1.01922 29139 ft 374 kts 281°
2026-05-05 10:55 41.46043 0.98656 29541 ft 376 kts 281°
2026-05-05 10:55 41.46946 0.95375 29893 ft 378 kts 281°
2026-05-05 10:56 41.47842 0.92107 30259 ft 379 kts 281°
2026-05-05 10:56 41.48748 0.88801 30603 ft 380 kts 281°
2026-05-05 10:56 41.49652 0.85508 30969 ft 379 kts 281°
2026-05-05 10:56 41.50557 0.82197 31312 ft 379 kts 281°
2026-05-05 10:57 41.51456 0.78900 31643 ft 380 kts 281°
2026-05-05 10:57 41.52356 0.75599 31915 ft 381 kts 281°
2026-05-05 10:57 41.53328 0.72267 32158 ft 386 kts 284°
2026-05-05 10:57 41.54424 0.69012 32439 ft 390 kts 287°
2026-05-05 10:58 41.55666 0.65778 32675 ft 395 kts 289°
2026-05-05 10:58 41.57062 0.62565 32870 ft 401 kts 292°
2026-05-05 10:58 41.58593 0.59434 32912 ft 405 kts 295°
2026-05-05 10:59 41.62026 0.53408 32909 ft 409 kts 298°
2026-05-05 10:59 41.65560 0.47475 32904 ft 409 kts 299°
2026-05-05 11:00 41.69132 0.41423 32909 ft 421 kts 298°
2026-05-05 11:00 41.72408 0.34938 32912 ft 425 kts 291°
2026-05-05 11:01 41.75177 0.27926 32906 ft 426 kts 286°
2026-05-05 11:01 41.77366 0.20577 32906 ft 421 kts 281°
2026-05-05 11:02 41.79187 0.13142 32904 ft 420 kts 280°
2026-05-05 11:02 41.80936 0.05688 32897 ft 420 kts 280°
2026-05-05 11:03 41.82669 -0.01749 32901 ft 420 kts 281°
2026-05-05 11:03 41.84412 -0.09227 32913 ft 420 kts 281°
2026-05-05 11:04 41.86145 -0.16688 32913 ft 421 kts 281°
2026-05-05 11:04 41.87884 -0.24177 32920 ft 422 kts 281°
2026-05-05 11:05 41.89622 -0.31710 32922 ft 422 kts 281°
2026-05-05 11:05 41.91342 -0.39205 32925 ft 423 kts 281°
2026-05-05 11:06 41.93066 -0.46738 32933 ft 423 kts 281°
2026-05-05 11:06 41.94788 -0.54276 32929 ft 423 kts 281°
2026-05-05 11:07 41.96513 -0.61841 32929 ft 424 kts 281°
2026-05-05 11:07 41.98238 -0.69422 32937 ft 425 kts 281°
2026-05-05 11:08 41.99953 -0.76981 32940 ft 426 kts 281°
2026-05-05 11:08 42.01666 -0.84577 32938 ft 426 kts 281°
2026-05-05 11:09 42.03372 -0.92215 32937 ft 427 kts 281°
2026-05-05 11:09 42.05065 -0.99820 32931 ft 428 kts 281°
2026-05-05 11:10 42.06776 -1.07486 32921 ft 429 kts 281°
2026-05-05 11:10 42.08501 -1.15239 32920 ft 431 kts 281°
2026-05-05 11:11 42.10196 -1.22915 32920 ft 432 kts 282°
2026-05-05 11:11 42.11917 -1.30658 32923 ft 432 kts 282°
2026-05-05 11:12 42.13642 -1.38444 32922 ft 433 kts 282°
2026-05-05 11:12 42.15339 -1.46159 32930 ft 433 kts 282°
2026-05-05 11:13 42.17040 -1.53961 32938 ft 434 kts 282°
2026-05-05 11:13 42.18742 -1.61777 32933 ft 434 kts 282°
2026-05-05 11:14 42.20424 -1.69545 32930 ft 435 kts 282°
2026-05-05 11:14 42.22112 -1.77390 32922 ft 436 kts 282°
2026-05-05 11:15 42.23803 -1.85258 32929 ft 438 kts 282°
2026-05-05 11:15 42.25494 -1.93132 32922 ft 438 kts 282°
2026-05-05 11:16 42.27177 -2.01020 32926 ft 438 kts 282°
2026-05-05 11:16 42.28849 -2.08900 32929 ft 438 kts 282°
2026-05-05 11:17 42.30523 -2.16825 32929 ft 439 kts 282°
2026-05-05 11:17 42.32188 -2.24717 32926 ft 438 kts 282°
2026-05-05 11:18 42.33841 -2.32584 32924 ft 439 kts 282°
2026-05-05 11:18 42.35507 -2.40543 32928 ft 440 kts 283°
2026-05-05 11:19 42.37162 -2.48468 32940 ft 440 kts 283°
2026-05-05 11:19 42.38809 -2.56399 32950 ft 440 kts 283°
2026-05-05 11:20 42.40461 -2.64374 32938 ft 440 kts 283°
2026-05-05 11:20 42.42100 -2.72332 32940 ft 441 kts 282°
2026-05-05 11:21 42.43729 -2.80269 32958 ft 441 kts 282°
2026-05-05 11:21 42.45240 -2.88330 32949 ft 441 kts 279°
2026-05-05 11:22 42.46235 -2.96454 32960 ft 441 kts 276°
2026-05-05 11:22 42.47134 -3.04649 32963 ft 441 kts 276°
2026-05-05 11:23 42.48031 -3.12872 32964 ft 440 kts 276°
2026-05-05 11:23 42.48912 -3.21014 32967 ft 440 kts 276°
2026-05-05 11:24 42.49782 -3.29180 32968 ft 440 kts 276°
2026-05-05 11:24 42.50654 -3.37415 32970 ft 441 kts 277°
2026-05-05 11:25 42.51520 -3.45623 32972 ft 441 kts 277°
2026-05-05 11:25 42.52376 -3.53798 32976 ft 441 kts 277°
2026-05-05 11:26 42.53230 -3.61986 32978 ft 441 kts 277°
2026-05-05 11:26 42.54077 -3.70179 32979 ft 441 kts 276°
2026-05-05 11:27 42.54923 -3.78417 32973 ft 441 kts 277°
2026-05-05 11:27 42.55767 -3.86672 32972 ft 441 kts 277°
2026-05-05 11:28 42.56605 -3.94900 32970 ft 441 kts 277°
2026-05-05 11:28 42.57428 -4.03083 32961 ft 441 kts 277°
2026-05-05 11:29 42.58241 -4.11333 32960 ft 442 kts 277°
2026-05-05 11:29 42.59047 -4.19536 32958 ft 442 kts 277°
2026-05-05 11:30 42.59856 -4.27804 32960 ft 443 kts 277°
2026-05-05 11:30 42.60662 -4.36070 32961 ft 443 kts 277°
2026-05-05 11:31 42.61462 -4.44334 32956 ft 442 kts 277°
2026-05-05 11:31 42.62256 -4.52600 32955 ft 442 kts 277°
2026-05-05 11:32 42.63044 -4.60848 32957 ft 442 kts 277°
2026-05-05 11:32 42.63824 -4.69094 32956 ft 443 kts 277°
2026-05-05 11:33 42.64605 -4.77399 32959 ft 443 kts 277°
2026-05-05 11:33 42.65376 -4.85675 32964 ft 444 kts 277°
2026-05-05 11:34 42.66142 -4.93994 32964 ft 444 kts 277°
2026-05-05 11:34 42.66896 -5.02285 32967 ft 443 kts 277°
2026-05-05 11:35 42.67633 -5.10551 32968 ft 443 kts 277°
2026-05-05 11:35 42.68373 -5.18848 32973 ft 443 kts 278°
2026-05-05 11:36 42.69107 -5.27094 32967 ft 443 kts 278°
2026-05-05 11:36 42.69843 -5.35396 32975 ft 443 kts 278°
2026-05-05 11:37 42.70565 -5.43681 32978 ft 442 kts 278°
2026-05-05 11:37 42.71280 -5.51957 32977 ft 443 kts 278°
2026-05-05 11:38 42.71994 -5.60233 32982 ft 443 kts 278°
2026-05-05 11:38 42.72711 -5.68572 32975 ft 443 kts 277°
2026-05-05 11:39 42.73417 -5.76834 32975 ft 443 kts 277°
2026-05-05 11:39 42.74116 -5.85121 32978 ft 442 kts 278°
2026-05-05 11:40 42.74808 -5.93461 32970 ft 443 kts 278°
2026-05-05 11:40 42.75494 -6.01757 32960 ft 443 kts 278°
2026-05-05 11:41 42.76178 -6.10065 32967 ft 442 kts 278°
2026-05-05 11:41 42.76848 -6.18329 32953 ft 442 kts 278°
2026-05-05 11:42 42.77502 -6.26616 32953 ft 442 kts 278°
2026-05-05 11:42 42.78162 -6.34974 32840 ft 443 kts 278°
2026-05-05 11:42 42.78487 -6.39100 32514 ft 440 kts 278°
2026-05-05 11:43 42.78810 -6.43197 31902 ft 437 kts 278°
2026-05-05 11:43 42.79129 -6.47279 31064 ft 440 kts 278°
2026-05-05 11:43 42.79449 -6.51396 30181 ft 442 kts 278°
2026-05-05 11:43 42.79769 -6.55554 29294 ft 444 kts 278°
2026-05-05 11:44 42.80088 -6.59744 28354 ft 446 kts 278°
2026-05-05 11:44 42.80409 -6.63898 27560 ft 448 kts 279°
2026-05-05 11:44 42.81164 -6.68038 26881 ft 449 kts 293°
2026-05-05 11:44 42.82462 -6.71865 26211 ft 447 kts 296°
2026-05-05 11:45 42.83810 -6.75600 25307 ft 449 kts 297°
2026-05-05 11:45 42.85191 -6.79428 24769 ft 449 kts 296°
2026-05-05 11:45 42.86546 -6.83240 23828 ft 454 kts 296°
2026-05-05 11:45 42.87920 -6.87163 23153 ft 455 kts 296°
2026-05-05 11:46 42.89240 -6.90976 22473 ft 445 kts 296°
2026-05-05 11:46 42.90546 -6.94771 21999 ft 433 kts 295°
2026-05-05 11:46 42.91803 -6.98443 21499 ft 433 kts 295°
2026-05-05 11:46 42.93078 -7.02181 21046 ft 434 kts 296°
2026-05-05 11:47 42.94334 -7.05867 20586 ft 430 kts 296°
2026-05-05 11:47 42.95586 -7.09549 19886 ft 422 kts 295°
2026-05-05 11:47 42.96793 -7.13111 19320 ft 413 kts 296°
2026-05-05 11:47 42.97990 -7.16642 18809 ft 408 kts 296°
2026-05-05 11:48 43.00319 -7.23532 17815 ft 390 kts 296°
2026-05-05 11:48 43.01448 -7.26883 17284 ft 383 kts 296°
2026-05-05 11:48 43.02539 -7.30114 16784 ft 375 kts 296°
2026-05-05 11:49 43.03629 -7.33350 16321 ft 369 kts 296°
2026-05-05 11:49 43.04692 -7.36507 15907 ft 362 kts 296°
2026-05-05 11:49 43.05721 -7.39577 15499 ft 355 kts 296°
2026-05-05 11:49 43.06733 -7.42594 15065 ft 348 kts 296°
2026-05-05 11:50 43.07743 -7.45608 14597 ft 343 kts 296°
2026-05-05 11:50 43.08722 -7.48532 14165 ft 337 kts 296°
2026-05-05 11:50 43.09685 -7.51411 13758 ft 331 kts 296°
2026-05-05 11:50 43.10634 -7.54238 13339 ft 326 kts 296°
2026-05-05 11:51 43.11579 -7.57035 12940 ft 323 kts 296°
2026-05-05 11:51 43.12519 -7.59819 12510 ft 320 kts 296°
2026-05-05 11:51 43.13439 -7.62558 12105 ft 317 kts 296°
2026-05-05 11:51 43.14358 -7.65304 11689 ft 314 kts 296°
2026-05-05 11:52 43.15476 -7.67791 11218 ft 312 kts 310°
2026-05-05 11:52 43.16943 -7.69974 10705 ft 312 kts 315°
2026-05-05 11:52 43.18464 -7.72106 10243 ft 310 kts 315°
2026-05-05 11:52 43.19920 -7.74174 10107 ft 297 kts 314°
2026-05-05 11:53 43.21312 -7.76188 10038 ft 282 kts 314°
2026-05-05 11:53 43.22642 -7.78139 9731 ft 278 kts 314°
2026-05-05 11:53 43.23937 -7.80054 9463 ft 272 kts 314°
2026-05-05 11:53 43.25212 -7.81953 9094 ft 270 kts 313°
2026-05-05 11:54 43.26461 -7.83820 8722 ft 269 kts 313°
2026-05-05 11:54 43.27725 -7.85715 8341 ft 267 kts 313°
2026-05-05 11:54 43.28973 -7.87591 7970 ft 266 kts 313°
2026-05-05 11:54 43.30218 -7.89465 7592 ft 264 kts 313°
2026-05-05 11:55 43.31449 -7.91322 7224 ft 262 kts 313°
2026-05-05 11:55 43.32674 -7.93171 6799 ft 260 kts 313°
2026-05-05 11:55 43.33882 -7.94997 6294 ft 259 kts 313°
2026-05-05 11:55 43.35074 -7.96798 5788 ft 257 kts 313°
2026-05-05 11:56 43.36274 -7.98610 5281 ft 256 kts 313°
2026-05-05 11:56 43.37470 -8.00418 4768 ft 254 kts 313°
2026-05-05 11:56 43.38660 -8.02221 4254 ft 253 kts 313°
2026-05-05 11:56 43.39832 -8.03997 3761 ft 252 kts 313°
2026-05-05 11:57 43.40984 -8.05744 3475 ft 242 kts 312°
2026-05-05 11:57 43.42083 -8.07412 3271 ft 231 kts 313°
2026-05-05 11:57 43.43150 -8.09041 3095 ft 223 kts 310°
2026-05-05 11:57 43.43804 -8.10893 2921 ft 217 kts 275°
2026-05-05 11:58 43.43543 -8.12871 2794 ft 211 kts 252°
2026-05-05 11:58 43.43036 -8.14766 2513 ft 210 kts 252°
2026-05-05 11:58 43.42551 -8.16662 2290 ft 209 kts 254°
2026-05-05 11:58 43.42108 -8.18512 2263 ft 200 kts 255°
2026-05-05 11:59 43.41700 -8.20288 2275 ft 189 kts 255°
2026-05-05 11:59 43.41328 -8.21935 2297 ft 174 kts 256°
2026-05-05 11:59 43.40986 -8.23479 2274 ft 169 kts 256°
2026-05-05 11:59 43.40643 -8.25055 2266 ft 170 kts 256°
2026-05-05 12:00 43.40325 -8.26542 2237 ft 154 kts 257°
2026-05-05 12:00 43.40032 -8.27906 2248 ft 148 kts 257°
2026-05-05 12:00 43.39742 -8.29257 2259 ft 149 kts 255°
2026-05-05 12:00 43.39149 -8.30426 2136 ft 153 kts 223°
2026-05-05 12:01 43.38251 -8.31233 1943 ft 154 kts 212°
2026-05-05 12:01 43.37311 -8.31929 1729 ft 151 kts 212°
2026-05-05 12:01 43.36409 -8.32631 1533 ft 146 kts 213°
2026-05-05 12:01 43.35557 -8.33325 1313 ft 140 kts 214°
2026-05-05 12:02 43.34730 -8.34009 1147 ft 139 kts 214°
2026-05-05 12:02 43.33905 -8.34696 936 ft 140 kts 213°
2026-05-05 12:02 43.33053 -8.35369 770 ft 140 kts 213°
2026-05-05 12:02 43.32231 -8.36049 580 ft 139 kts 214°
2026-05-05 12:03 43.31391 -8.36733 409 ft 138 kts 213°
2026-05-05 12:03 43.30590 -8.37402 294 ft 130 kts 214°
2026-05-05 12:03 43.29768 -8.38042 630 ft 148 kts 211°
2026-05-05 12:03 43.28793 -8.38699 1146 ft 163 kts 200°
2026-05-05 12:04 43.27683 -8.38698 2003 ft 163 kts 162°
2026-05-05 12:04 43.26792 -8.37835 2744 ft 162 kts 129°
2026-05-05 12:04 43.26337 -8.36417 3246 ft 173 kts 96°
2026-05-05 12:04 43.26551 -8.34694 3444 ft 195 kts 58°
2026-05-05 12:05 43.27525 -8.33448 3463 ft 194 kts 20°
2026-05-05 12:05 43.28827 -8.33289 3470 ft 189 kts 344°
2026-05-05 12:05 43.30058 -8.33942 3485 ft 189 kts 336°
2026-05-05 12:05 43.31280 -8.34598 3473 ft 189 kts 343°
2026-05-05 12:06 43.32594 -8.34548 3390 ft 200 kts 21°
2026-05-05 12:06 43.33832 -8.33516 3437 ft 213 kts 34°
2026-05-05 12:06 43.35017 -8.32243 3454 ft 216 kts 36°
2026-05-05 12:06 43.36188 -8.30928 3462 ft 217 kts 37°
2026-05-05 12:07 43.37217 -8.29423 3463 ft 218 kts 53°
2026-05-05 12:07 43.38015 -8.27647 3447 ft 217 kts 58°
2026-05-05 12:07 43.38746 -8.25855 3196 ft 216 kts 58°
2026-05-05 12:07 43.39466 -8.24053 2986 ft 214 kts 59°
2026-05-05 12:08 43.40185 -8.22246 2970 ft 217 kts 59°
2026-05-05 12:08 43.40902 -8.20437 2966 ft 217 kts 59°
2026-05-05 12:08 43.41633 -8.18586 2965 ft 218 kts 59°
2026-05-05 12:08 43.42477 -8.16884 2948 ft 213 kts 36°
2026-05-05 12:09 43.43783 -8.16178 2955 ft 205 kts
2026-05-05 12:09 43.45131 -8.16641 2948 ft 196 kts 324°
2026-05-05 12:09 43.45971 -8.18013 2944 ft 182 kts 296°
2026-05-05 12:09 43.46361 -8.19619 2948 ft 181 kts 279°
2026-05-05 12:10 43.46347 -8.21411 2966 ft 191 kts 262°
2026-05-05 12:10 43.46023 -8.23188 2966 ft 193 kts 256°
2026-05-05 12:10 43.45497 -8.24890 2951 ft 197 kts 232°
2026-05-05 12:10 43.44443 -8.26130 2977 ft 200 kts 216°
2026-05-05 12:11 43.43246 -8.27112 3028 ft 198 kts 212°
2026-05-05 12:11 43.42065 -8.28019 2840 ft 192 kts 212°
2026-05-05 12:11 43.40927 -8.28917 2566 ft 189 kts 213°
2026-05-05 12:11 43.39798 -8.29837 2291 ft 186 kts 214°
2026-05-05 12:12 43.38711 -8.30733 2035 ft 179 kts 214°
2026-05-05 12:12 43.37677 -8.31584 1787 ft 168 kts 214°
2026-05-05 12:12 43.36718 -8.32371 1594 ft 153 kts 214°
2026-05-05 12:12 43.35843 -8.33090 1373 ft 141 kts 214°
2026-05-05 12:13 43.35007 -8.33778 1209 ft 138 kts 215°
2026-05-05 12:13 43.34176 -8.34463 1038 ft 140 kts 214°
2026-05-05 12:13 43.33337 -8.35152 861 ft 141 kts 214°
2026-05-05 12:13 43.32485 -8.35866 650 ft 145 kts 212°
2026-05-05 12:14 43.31609 -8.36554 467 ft 144 kts 213°
2026-05-05 12:14 43.30751 -8.37271 278 ft 143 kts 213°
2026-05-05 12:14 43.29979 -8.37913 312 ft 108 kts 211°
2026-05-05 12:14 43.29491 -8.38312 293 ft 51 kts 213°
2026-05-05 12:15 43.29302 -8.38467 273 ft 17 kts 215°
2026-05-05 12:15 43.29239 -8.38590 267 ft 15 kts 224°
2026-05-05 12:15 43.29209 -8.38543 262 ft 9 kts 22°
2026-05-05 12:15 43.29253 -8.38506 267 ft 7 kts 32°
2026-05-05 12:16 43.29308 -8.38461 273 ft 10 kts 31°
2026-05-05 12:16 43.29381 -8.38402 280 ft 14 kts 30°
2026-05-05 12:16 43.29459 -8.38338 289 ft 13 kts 31°
2026-05-05 12:16 43.29557 -8.38259 300 ft 19 kts 31°
2026-05-05 12:17 43.29657 -8.38174 307 ft 15 kts 31°
2026-05-05 12:17 43.29769 -8.38084 312 ft 18 kts 31°
2026-05-05 12:17 43.29877 -8.37997 312 ft 17 kts 31°
2026-05-05 12:17 43.29959 -8.38038 318 ft 11 kts 306°
2026-05-05 12:18 43.30018 -8.38076 322 ft 10 kts 356°
2026-05-05 12:18 43.30096 -8.38057 321 ft 8 kts 30°
2026-05-05 12:18 43.30138 -8.38062 321 ft 5 kts 326°
2026-05-05 12:18 43.30162 -8.38084 322 ft 2 kts 327°
2026-05-05 12:19 43.30164 -8.38086 322 ft 0 kts 327°